Tiempo cada hora Cordoba

Hoy, 20 Octubre, Martes

Tiempo Temperatura Precipitaciones Viento Presión Humedad
00:00 +19°C° 0 mm 2 mps 751 mmHg 43%
01:00 +20°C° 0 mm 2 mps 751 mmHg 44%
02:00 +20°C° 0 mm 2 mps 751 mmHg 45%
03:00 +20°C° 0 mm 2 mps 750 mmHg 46%
04:00 +20°C° 0 mm 2 mps 750 mmHg 45%
05:00 +20°C° 0 mm 2 mps 750 mmHg 45%
06:00 +20°C° 0 mm 2 mps 750 mmHg 44%
07:00 +23°C° 0 mm 2 mps 749 mmHg 41%
08:00 +24°C° 0 mm 3 mps 749 mmHg 37%
09:00 +25°C° 0 mm 4 mps 749 mmHg 33%
10:00 +27°C° 0 mm 6 mps 748 mmHg 31%
11:00 +29°C° 0 mm 8 mps 748 mmHg 28%
12:00 +32°C° 0 mm 10 mps 747 mmHg 25%
13:00 +32°C° 0 mm 10 mps 747 mmHg 25%
14:00 +32°C° 0 mm 10 mps 746 mmHg 25%
15:00 +32°C° 0 mm 10 mps 746 mmHg 25%
16:00 +29°C° 0 mm 9 mps 745 mmHg 28%
17:00 +28°C° 0 mm 7 mps 745 mmHg 31%
18:00 +27°C° 0 mm 6 mps 745 mmHg 33%
19:00 +26°C° 0.1 mm 7 mps 745 mmHg 39%
20:00 +24°C° 0.1 mm 8 mps 746 mmHg 45%
21:00 +23°C° 0.1 mm 9 mps 747 mmHg 52%
22:00 +22°C° 0.9 mm 8 mps 747 mmHg 60%
23:00 +21°C° 0.9 mm 6 mps 747 mmHg 69%

Mañana, 21 Octubre, Miércoles

Tiempo Temperatura Precipitaciones Viento Presión Humedad
00:00 +21°C° 0.9 mm 5 mps 747 mmHg 78%
01:00 +20°C° 0.1 mm 4 mps 747 mmHg 81%
02:00 +19°C° 0.1 mm 3 mps 747 mmHg 85%
03:00 +18°C° 0.1 mm 2 mps 747 mmHg 88%
04:00 +18°C° 0.3 mm 2 mps 747 mmHg 87%
05:00 +18°C° 0.3 mm 2 mps 748 mmHg 86%
06:00 +18°C° 0.3 mm 2 mps 748 mmHg 85%
07:00 +19°C° 0.3 mm 3 mps 748 mmHg 78%
08:00 +21°C° 0.3 mm 4 mps 749 mmHg 71%
09:00 +22°C° 0.3 mm 5 mps 749 mmHg 64%
10:00 +22°C° 0.2 mm 6 mps 749 mmHg 60%
11:00 +23°C° 0.2 mm 6 mps 749 mmHg 56%
12:00 +24°C° 0.2 mm 6 mps 749 mmHg 52%
13:00 +24°C° 0.1 mm 6 mps 749 mmHg 52%
14:00 +24°C° 0.1 mm 6 mps 749 mmHg 51%
15:00 +24°C° 0.1 mm 6 mps 749 mmHg 50%
16:00 +23°C° 0 mm 5 mps 749 mmHg 55%
17:00 +22°C° 0 mm 4 mps 749 mmHg 59%
18:00 +21°C° 0 mm 3 mps 749 mmHg 64%
19:00 +20°C° 0 mm 2 mps 750 mmHg 69%
20:00 +19°C° 0 mm 2 mps 750 mmHg 74%
21:00 +18°C° 0 mm 2 mps 751 mmHg 79%
22:00 +19°C° 0.1 mm 1 mps 751 mmHg 81%
23:00 +19°C° 0.1 mm 1 mps 751 mmHg 83%

Pasado mañana, 22 Octubre, Jueves

Tiempo Temperatura Precipitaciones Viento Presión Humedad
00:00 +18°C° 0.1 mm 1 mps 751 mmHg 85%
01:00 +18°C° 0 mm 1 mps 751 mmHg 85%
02:00 +18°C° 0 mm 1 mps 751 mmHg 85%
03:00 +18°C° 0 mm 1 mps 751 mmHg 85%
04:00 +18°C° 0.1 mm 1 mps 751 mmHg 85%
05:00 +18°C° 0.1 mm 1 mps 751 mmHg 86%
06:00 +18°C° 0.1 mm 1 mps 751 mmHg 86%
07:00 +18°C° 0.1 mm 1 mps 751 mmHg 82%
08:00 +19°C° 0.1 mm 1 mps 751 mmHg 78%
09:00 +20°C° 0.1 mm 1 mps 752 mmHg 74%
10:00 +20°C° 0.4 mm 1 mps 752 mmHg 75%
11:00 +20°C° 0.4 mm 1 mps 752 mmHg 76%
12:00 +20°C° 0.4 mm 1 mps 752 mmHg 76%
13:00 +19°C° 0.5 mm 2 mps 752 mmHg 78%
14:00 +19°C° 0.5 mm 2 mps 752 mmHg 79%
15:00 +19°C° 0.5 mm 2 mps 752 mmHg 80%
16:00 +19°C° 0.3 mm 2 mps 752 mmHg 82%
17:00 +18°C° 0.3 mm 2 mps 752 mmHg 84%
18:00 +19°C° 0.3 mm 1 mps 752 mmHg 86%
19:00 +18°C° 0.3 mm 1 mps 753 mmHg 88%
20:00 +18°C° 0.3 mm 1 mps 753 mmHg 89%
21:00 +17°C° 0.3 mm 2 mps 754 mmHg 91%
22:00 +17°C° 0.1 mm 2 mps 754 mmHg 91%
23:00 +16°C° 0.1 mm 2 mps 754 mmHg 92%

23 Octubre, Viernes

Tiempo Temperatura Precipitaciones Viento Presión Humedad
00:00 +16°C° 0.1 mm 2 mps 755 mmHg 93%
01:00 +16°C° 0.1 mm 1 mps 755 mmHg 93%
02:00 +15°C° 0.1 mm 1 mps 755 mmHg 94%
03:00 +15°C° 0.1 mm 1 mps 755 mmHg 94%
04:00 +15°C° 0 mm 1 mps 755 mmHg 94%
05:00 +14°C° 0 mm 1 mps 756 mmHg 94%
06:00 +14°C° 0 mm 1 mps 756 mmHg 93%
07:00 +15°C° 0 mm 1 mps 757 mmHg 87%
08:00 +18°C° 0 mm 1 mps 757 mmHg 80%
09:00 +19°C° 0 mm 1 mps 758 mmHg 73%
10:00 +20°C° 0 mm 1 mps 757 mmHg 67%
11:00 +20°C° 0 mm 2 mps 757 mmHg 60%
12:00 +21°C° 0 mm 3 mps 757 mmHg 53%
13:00 +22°C° 0 mm 3 mps 757 mmHg 51%
14:00 +22°C° 0 mm 3 mps 757 mmHg 48%
15:00 +24°C° 0 mm 3 mps 757 mmHg 46%
16:00 +21°C° 0.1 mm 2 mps 757 mmHg 52%
17:00 +20°C° 0.1 mm 2 mps 757 mmHg 58%
18:00 +19°C° 0.1 mm 2 mps 757 mmHg 65%
19:00 +19°C° 0.4 mm 1 mps 758 mmHg 69%
20:00 +18°C° 0.4 mm 1 mps 758 mmHg 73%
21:00 +18°C° 0.4 mm 1 mps 759 mmHg 77%
22:00 +16°C° 0.1 mm 1 mps 759 mmHg 79%
23:00 +15°C° 0.1 mm 0 mps 758 mmHg 80%

24 Octubre, Sábado

Tiempo Temperatura Precipitaciones Viento Presión Humedad
00:00 +14°C° 0.1 mm 0 mps 758 mmHg 82%
01:00 +14°C° 0 mm 0 mps 758 mmHg 83%
02:00 +14°C° 0 mm 0 mps 758 mmHg 84%
03:00 +14°C° 0 mm 0 mps 758 mmHg 85%
04:00 +13°C° 0 mm 0 mps 758 mmHg 85%
05:00 +13°C° 0 mm 0 mps 758 mmHg 86%
06:00 +13°C° 0 mm 0 mps 758 mmHg 86%
07:00 +14°C° 0 mm 0 mps 758 mmHg 80%
08:00 +16°C° 0 mm 0 mps 759 mmHg 73%
09:00 +17°C° 0 mm 0 mps 759 mmHg 67%
10:00 +19°C° 0 mm 0 mps 758 mmHg 60%
11:00 +22°C° 0 mm 1 mps 758 mmHg 54%
12:00 +23°C° 0 mm 1 mps 758 mmHg 47%
13:00 +24°C° 0 mm 1 mps 757 mmHg 44%
14:00 +24°C° 0 mm 1 mps 757 mmHg 41%
15:00 +24°C° 0 mm 2 mps 757 mmHg 38%
16:00 +23°C° 0 mm 2 mps 757 mmHg 43%
17:00 +22°C° 0 mm 1 mps 757 mmHg 47%
18:00 +20°C° 0 mm 1 mps 757 mmHg 51%
19:00 +20°C° 0 mm 1 mps 757 mmHg 54%
20:00 +19°C° 0 mm 1 mps 757 mmHg 56%
21:00 +18°C° 0 mm 1 mps 757 mmHg 58%
22:00 +18°C° 0 mm 1 mps 757 mmHg 60%
23:00 +16°C° 0 mm 1 mps 757 mmHg 62%

25 Octubre, Domingo

Tiempo Temperatura Precipitaciones Viento Presión Humedad
00:00 +16°C° 0 mm 1 mps 757 mmHg 64%
01:00 +16°C° 0 mm 1 mps 757 mmHg 66%
02:00 +14°C° 0 mm 0 mps 756 mmHg 68%
03:00 +14°C° 0 mm 0 mps 756 mmHg 70%
04:00 +13°C° 0 mm 0 mps 756 mmHg 72%
05:00 +13°C° 0 mm 0 mps 756 mmHg 74%
06:00 +13°C° 0 mm 0 mps 756 mmHg 77%
07:00 +14°C° 0 mm 0 mps 756 mmHg 71%
08:00 +16°C° 0 mm 1 mps 757 mmHg 65%
09:00 +19°C° 0 mm 1 mps 757 mmHg 60%
10:00 +19°C° 0 mm 2 mps 757 mmHg 54%
11:00 +21°C° 0 mm 3 mps 756 mmHg 49%
12:00 +22°C° 0 mm 4 mps 756 mmHg 44%
13:00 +22°C° 0 mm 4 mps 756 mmHg 43%
14:00 +23°C° 0 mm 4 mps 755 mmHg 41%
15:00 +23°C° 0 mm 5 mps 755 mmHg 39%
16:00 +22°C° 0 mm 4 mps 755 mmHg 45%
17:00 +21°C° 0 mm 4 mps 755 mmHg 51%
18:00 +19°C° 0 mm 3 mps 755 mmHg 57%
19:00 +19°C° 0.1 mm 4 mps 756 mmHg 61%
20:00 +18°C° 0.1 mm 4 mps 756 mmHg 65%
21:00 +18°C° 0.1 mm 4 mps 757 mmHg 69%
22:00 +17°C° 0 mm 4 mps 757 mmHg 67%
23:00 +16°C° 0 mm 3 mps 757 mmHg 66%

26 Octubre, Lunes

Tiempo Temperatura Precipitaciones Viento Presión Humedad
00:00 +14°C° 0 mm 3 mps 758 mmHg 64%
01:00 +14°C° 0 mm 2 mps 758 mmHg 66%
02:00 +13°C° 0 mm 2 mps 758 mmHg 68%
03:00 +12°C° 0 mm 1 mps 758 mmHg 69%
04:00 +12°C° 0 mm 1 mps 758 mmHg 70%
05:00 +11°C° 0 mm 1 mps 759 mmHg 72%
06:00 +11°C° 0 mm 1 mps 759 mmHg 73%
07:00 +12°C° 0 mm 1 mps 759 mmHg 68%
08:00 +13°C° 0 mm 1 mps 759 mmHg 62%
09:00 +14°C° 0 mm 1 mps 760 mmHg 57%
10:00 +16°C° 0 mm 1 mps 760 mmHg 51%
11:00 +19°C° 0 mm 1 mps 760 mmHg 44%
12:00 +20°C° 0 mm 1 mps 759 mmHg 38%
13:00 +21°C° 0 mm 1 mps 759 mmHg 36%
14:00 +21°C° 0 mm 1 mps 759 mmHg 34%
15:00 +22°C° 0 mm 1 mps 759 mmHg 32%
16:00 +20°C° 0 mm 1 mps 759 mmHg 35%
17:00 +19°C° 0 mm 1 mps 759 mmHg 39%
18:00 +18°C° 0 mm 1 mps 759 mmHg 43%
19:00 +16°C° 0 mm 1 mps 759 mmHg 46%
20:00 +15°C° 0 mm 1 mps 759 mmHg 49%
21:00 +14°C° 0 mm 2 mps 760 mmHg 53%
22:00 +14°C° 0 mm 1 mps 759 mmHg 55%
23:00 +14°C° 0 mm 1 mps 759 mmHg 57%
Mostrar más

Necesitamos Su Consentimiento

Meteoprog y nuestros Proveedores de Servicios pueden almacenar y acceder a sus datos personales como cookies, identificadores de dispositivo u otras tecnologías similares de su dispositivo y procesar dichos datos para personalizar contenido y anuncios, además de ofrecer funciones de redes sociales y analizar el tráfico.

  • Almacenar y/o acceder a información en su dispositivo

    Se puede almacenar o acceder a cookies, identificadores de dispositivo u otra información de su dispositivo para los fines anteriormente indicados.

  • Anuncios y contenido personalizados, medición de anuncios y contenido, percepciones del público, y desarrollo de productos

    Los anuncios y el contenido pueden personalizarse en base a su perfil. Se pueden añadir más datos para personalizar mejor los anuncios y contenidos. Se puede medir el rendimiento de los anuncios y contenidos. Se puede obtener la percepción sobre el público que ha visto los anuncios y contenidos. Dichos datos pueden usarse para desarrollar o mejorar la experiencia del usuario, sistemas y software.

Al hacer clic en ‘Estoy De Acuerdo’ usted permitirá el uso de las cookies, identificadores de dispositivo, balizas web u otras tecnologías similares indicadas. Su configuración puede cambiarse desde el navegador de su dispositivo.

Para ciertos fines, los intereses legítimos pueden ser considerados por encima del consentimiento. Puede leer más sobre ello en nuestra Política de Privacidad y Cookies.